Regional Weather Roundup
Issued by NWS Sioux Falls, SD

Home | Current Version | Previous Version | Text Only | Print | Product List | Glossary Off
Versions: 1 2 3 4 5 6 7 8 9 10 11 12 13 14 15 16 17 18 19 20 21 22 23 24 25 26 27 28 29 30 31 32 33 34 35 36 37 38 39 40 41 42 43 44 45 46 47 48 49 50

134
ASUS43 KFSD 181310
RWRFSD

WEATHER ROUNDUP FOR SE SOUTH DAKOTA/SW MINNESOTA/NW IOWA
NATIONAL WEATHER SERVICE SIOUX FALLS SD
800 AM CDT WED OCT 18 2017

NOTE: "FAIR" INDICATES FEW OR NO CLOUDS BELOW 12,000 FEET WITH NO
SIGNIFICANT WEATHER AND OR OBSTRUCTIONS TO VISIBILITY.


SDZ038>040-050-052>070-181400-
SOUTHEAST SOUTH DAKOTA

CITY           SKY/WX    TMP DP  RH WIND       PRES   REMARKS
BROOKINGS      CLOUDY    47  42  83 S7        29.76R
CHAMBERLAIN    CLOUDY    50  34  54 NW9       29.80R
HURON          CLOUDY    40  38  93 CALM      29.77R
MADISON        FAIR      43  43 100 S12       29.76S
MITCHELL       CLOUDY    45  40  82 S3        29.77R
SIOUX FALLS    PTCLDY    51  45  79 S5        29.79R
WINNER         FAIR      54  29  38 NW9       29.82R
YANKTON        CLEAR     50  43  77 SE7       29.78F
$$

MNZ071-072-080-081-089-090-097-098-181400-
SOUTHWEST MINNESOTA

CITY           SKY/WX    TMP DP  RH WIND       PRES   REMARKS
FAIRMONT       CLEAR     46  43  89 S12       29.84F
JACKSON        CLEAR     46  43  87 S12       29.82F
LUVERNE        CLEAR     41  39  93 S5        29.80S
MARSHALL       CLEAR     55  44  66 SW17      29.72F
MONTEVIDEO     CLOUDY    52  43  71 SW7       29.71F
PIPESTONE      CLEAR     48  43  81 S5        29.78S
REDWOOD FALLS  CLEAR     49  43  80 S8        29.74F
TRACY          CLOUDY    55  46  74 SW17      29.75S
WORTHINGTON    CLEAR     51  44  77 S13       29.79F
$$

IAZ001>003-012>014-020>022-031-032-NEZ013-014-SDZ071-181400-
NORTHWEST IOWA

CITY           SKY/WX    TMP DP  RH WIND       PRES   REMARKS
CHEROKEE       CLEAR     47  46  96 S9        29.85F
DENISON        CLEAR     48  45  87 S9        29.93S
ESTHERVILLE    CLEAR     42  42 100 S10       29.84F
LE MARS        CLEAR     50  46  87 S14       29.81F HAZE
ORANGE CITY    CLEAR     48  46  93 S10       29.81F
SHELDON        CLEAR     48  45  87 S9        29.79F
SIOUX CITY     CLEAR     46  45  96 SE10      29.85F
SPENCER        CLEAR     44  42  93 S6        29.84F
STORM LAKE     CLEAR     45  43  93 S10       29.87F
$$

ABBREVIATIONS USED IN REMARKS
   TC - TEMPERATURE IN CELSIUS
  WCI - WIND CHILL INDEX
   HX - HEAT INDEX
  VSB - VISIBILITY





USA.gov is the U.S. government's official web portal to all federal, state and local government web resources and services.